Home   Weather   Christchurch   Past weeks
Flag for New Zealand

Past Weather in Christchurch, New Zealand — Yesterday and Last 2 Weeks

Now
46 °F

Fog.


Feels Like: 42 °F
Forecast: 51 / 44 °F
Wind: 9 mph from Northeast

Location: Christchurch Airport

Current Time: Jul 22, 2019 at 11:59:28 am

Latest Report: Jul 22, 2019 at 11:30 am


Visibility: 4 mi

Pressure: 29.98 "Hg

Humidity: 100%

Dew Point: 46 °F

Location of ChristchurchLocation

Past Weather in Christchurch — Graph

°F

Christchurch Temperature Yesterday

Maximum temperature yesterday: 54 °F (at 1:00 pm)
Minimum temperature yesterday: 48 °F (at 7:00 pm)
Average temperature yesterday: 50 °F

High & Low Weather Summary for the Past Weeks

 TemperatureHumidityPressure
High64 °F (Jul 13, 2:00 pm)100% (Jul 8, 2:00 am)30.04 "Hg (Jul 8, 2:00 am)
Low28 °F (Jul 7, 11:30 pm)41% (Jul 11, 2:30 am)29.00 "Hg (Jul 14, 1:30 pm)
Average46 °F84%29.55 "Hg
* Reported Jul 7 10:00 am — Jul 22 10:30 am, Christchurch. Weather by CustomWeather, © 2019

Note: Actual official high and low records may vary slightly from our data, if they occured in-between our weather recording intervals... More about our weather records

Advertising

Christchurch Weather History for the Previous 24 Hours

Scroll right to see more
 ConditionsComfort  
Time TempWeatherWind HumidityBarometerVisibility
10:30 am
Mon, Jul 22
46 °FFog.8 mph100%29.98 "Hg1 mi
10:00 am46 °FFog.5 mph100%29.98 "Hg1 mi
9:30 am45 °FFog.2 mph100%29.98 "Hg0 mi
9:00 am43 °FFog.2 mph100%29.95 "Hg0 mi
8:30 am39 °FFog.No wind100%29.95 "Hg0 mi
8:00 am41 °FFog.1 mph100%29.95 "Hg0 mi
7:30 am41 °FFog.3 mph100%29.95 "Hg0 mi
7:00 am43 °FFog.No wind100%29.95 "Hg0 mi
6:30 am45 °FFog.2 mph100%29.95 "Hg1 mi
6:00 am45 °FFog.3 mph100%29.95 "Hg0 mi
5:30 am45 °FFog.1 mph100%29.92 "Hg0 mi
5:00 am46 °FFog.1 mph100%29.92 "Hg1 mi
4:30 am46 °FFog.3 mph100%29.92 "Hg1 mi
4:00 am46 °FFog.1 mph100%29.92 "Hg0 mi
3:30 am45 °FFog.1 mph100%29.92 "Hg0 mi
3:00 am45 °FFog.2 mph100%29.95 "Hg0 mi
2:30 am46 °FFog.1 mph100%29.95 "Hg0 mi
2:00 am46 °FFog.3 mph100%29.95 "Hg0 mi
1:30 am46 °FFog.5 mph100%29.92 "Hg0 mi
1:00 am46 °FLight rain. Fog.2 mph100%29.92 "Hg0 mi
12:30 am48 °FLight rain. Fog.3 mph100%29.92 "Hg0 mi
12:00 am48 °FFog.2 mph100%29.92 "Hg0 mi
11:30 pm
Sun, Jul 21
48 °FFog.3 mph100%29.92 "Hg1 mi
11:00 pm48 °FDense fog.2 mph100%29.92 "Hg1 mi
10:30 pm48 °FFog.5 mph100%29.92 "Hg1 mi
10:00 pm48 °FFog.3 mph100%29.92 "Hg1 mi
9:30 pm48 °FFog.5 mph100%29.89 "Hg0 mi
9:00 pm48 °FFog.5 mph100%29.89 "Hg1 mi
8:30 pm48 °FFog.7 mph100%29.89 "Hg1 mi
8:00 pm48 °FFog.7 mph100%29.89 "Hg1 mi
7:30 pm48 °FDense fog.8 mph100%29.86 "Hg1 mi
7:00 pm48 °FDense fog.10 mph100%29.86 "Hg1 mi
6:30 pm50 °FFog.10 mph100%29.86 "Hg3 mi
6:00 pm50 °FMostly cloudy.10 mph100%29.83 "Hg4 mi
5:30 pm50 °FMostly cloudy.10 mph100%29.83 "Hg5 mi
5:00 pm50 °FCloudy.12 mph100%29.83 "HgN/A
4:30 pm52 °FMore clouds than sun.8 mph94%29.83 "HgN/A
4:00 pm52 °FRain. Broken clouds.6 mph94%29.80 "Hg5 mi
3:30 pm52 °FScattered showers. Broken clouds.9 mph100%29.80 "HgN/A
3:00 pm52 °FBroken clouds.9 mph100%29.77 "HgN/A
2:30 pm54 °FPartly sunny.12 mph94%29.77 "HgN/A
2:00 pm54 °FMore clouds than sun.10 mph94%29.74 "HgN/A
1:30 pm54 °FPartly sunny.9 mph94%29.74 "HgN/A
1:00 pm54 °FMostly cloudy.5 mph94%29.74 "HgN/A
12:30 pm52 °FMostly cloudy.3 mph100%29.74 "HgN/A
12:00 pm52 °FLight rain. Partly sunny.13 mph100%29.74 "Hg4 mi
11:30 am52 °FLow clouds.16 mph94%29.71 "HgN/A
11:00 am52 °FLow clouds.21 mph94%29.71 "Hg4 mi
Weather by CustomWeather, © 2019

See weather overview